Terminal Aerodrome Forecast
Issued by NWS

Home | Current Version | Previous Version | Graphics & Text | Print | Product List | Glossary On
Versions: 1 2 3 4 5 6 7 8 9 10 11 12 13 14 15 16 17 18 19 20 21 22 23 24 25 26 27 28 29 30 31 32 33 34 35 36 37 38 39 40 41 42 43 44 45 46 47 48 49 50
000
FTUS43 KLOT 242000 AAB
TAFGYY
TAF AMD
KGYY 242055Z 2421/2518 26012KT P6SM BKN035 BKN100
     FM242200 26010KT P6SM BKN015 BKN100
     FM242300 26006KT P6SM OVC008
     FM250700 06003KT 6SM HZ OVC008
     FM251200 08010G18KT 3SM -SN OVC012
     FM251300 03012G25KT 1 1/2SM -SN BR SCT008 OVC010
      TEMPO 2515/2518 3/4SM -SN BR OVC006=

USA.gov is the U.S. government's official web portal to all federal, state and local government web resources and services.